Time,TemperatureF,DewpointF,PressureIn,WindDirection,WindDirectionDegrees,WindSpeedMPH,WindSpeedGustMPH,Humidity,HourlyPrecipIn,Conditions,Clouds,dailyrainin,SolarRadiationWatts/m^2,SoftwareType,DateUTC
2013-09-01 00:00:00,79.4,74.1,29.77,SSE,148,0.0,0.0,84,0.00,CLR,CLR,0.00,0.0,WeatherDisplay:10.37,2013-09-01 05:00:00,
2013-09-01 00:10:00,79.4,74.1,29.77,SSE,148,0.0,1.0,84,0.00,CLR,CLR,0.00,0.0,WeatherDisplay:10.37,2013-09-01 05:10:00,
2013-09-01 00:20:00,79.4,74.1,29.77,SSE,148,0.0,1.0,84,0.00,CLR,CLR,0.00,0.0,WeatherDisplay:10.37,2013-09-01 05:20:00,
2013-09-01 00:30:00,79.3,74.0,29.77,SSE,148,0.0,0.0,84,0.00,CLR,CLR,0.00,0.0,WeatherDisplay:10.37,2013-09-01 05:30:00,
2013-09-01 00:40:00,79.2,73.9,29.77,SE,146,0.0,1.0,84,0.00,CLR,CLR,0.00,0.0,WeatherDisplay:10.37,2013-09-01 05:40:00,
2013-09-01 00:50:00,78.8,73.9,29.77,SE,144,0.0,1.0,85,0.00,CLR,CLR,0.00,0.0,WeatherDisplay:10.37,2013-09-01 05:50:00,
2013-09-01 01:00:00,78.6,73.7,29.77,SSW,210,0.0,1.0,85,0.00,CLR,CLR,0.00,0.0,WeatherDisplay:10.37,2013-09-01 06:00:00,
2013-09-01 01:10:00,78.5,73.6,29.76,SSW,208,0.0,1.0,85,0.00,CLR,CLR,0.00,0.0,WeatherDisplay:10.37,2013-09-01 06:10:00,
2013-09-01 01:20:00,78.2,73.7,29.76,SSW,210,0.0,1.0,86,0.00,CLR,CLR,0.00,0.0,WeatherDisplay:10.37,2013-09-01 06:20:00,
2013-09-01 01:30:00,78.0,73.2,29.76,SSW,210,0.0,1.0,85,0.00,CLR,CLR,0.00,0.0,WeatherDisplay:10.37,2013-09-01 06:30:00,
2013-09-01 01:40:00,77.7,73.2,29.76,SSW,207,0.0,0.0,86,0.00,CLR,CLR,0.00,0.0,WeatherDisplay:10.37,2013-09-01 06:40:00,
2013-09-01 01:50:00,77.7,73.2,29.76,SSW,197,0.0,0.0,86,0.00,CLR,CLR,0.00,0.0,WeatherDisplay:10.37,2013-09-01 06:50:00,
2013-09-01 02:00:00,77.6,73.1,29.75,SSW,197,0.0,0.0,86,0.00,CLR,CLR,0.00,0.0,WeatherDisplay:10.37,2013-09-01 07:00:00,
2013-09-01 02:10:00,77.8,73.3,29.75,SSW,197,0.0,0.0,86,0.00,CLR,CLR,0.00,0.0,WeatherDisplay:10.37,2013-09-01 07:10:00,
2013-09-01 02:20:00,77.5,73.3,29.76,South,190,0.0,1.0,87,0.00,CLR,CLR,0.00,0.0,WeatherDisplay:10.37,2013-09-01 07:20:00,
2013-09-01 02:30:00,77.2,73.1,29.75,SSE,161,0.0,0.0,87,0.00,CLR,CLR,0.00,0.0,WeatherDisplay:10.37,2013-09-01 07:30:00,
2013-09-01 02:40:00,76.8,73.0,29.75,SSE,164,0.0,0.0,88,0.00,CLR,CLR,0.00,0.0,WeatherDisplay:10.37,2013-09-01 07:40:00,
2013-09-01 02:50:00,76.3,72.8,29.75,SSE,165,0.0,0.0,89,0.00,CLR,CLR,0.00,0.0,WeatherDisplay:10.37,2013-09-01 07:50:00,
2013-09-01 03:00:00,76.1,72.6,29.75,SSW,198,0.0,2.0,89,0.00,CLR,CLR,0.00,0.0,WeatherDisplay:10.37,2013-09-01 08:00:00,
2013-09-01 03:10:00,76.1,72.6,29.75,SW,215,0.0,2.0,89,0.00,CLR,CLR,0.00,0.0,WeatherDisplay:10.37,2013-09-01 08:10:00,
2013-09-01 03:20:00,76.1,72.6,29.75,SW,230,0.0,1.0,89,0.00,CLR,CLR,0.00,0.0,WeatherDisplay:10.37,2013-09-01 08:20:00,
2013-09-01 03:30:00,76.3,72.5,29.75,South,171,0.0,3.0,88,0.00,CLR,CLR,0.00,0.0,WeatherDisplay:10.37,2013-09-01 08:30:00,
2013-09-01 03:40:00,76.5,72.4,29.74,South,190,0.0,2.0,87,0.00,CLR,CLR,0.00,0.0,WeatherDisplay:10.37,2013-09-01 08:40:00,
2013-09-01 03:50:00,76.5,72.3,29.74,SSW,198,0.0,2.0,87,0.00,CLR,CLR,0.00,0.0,WeatherDisplay:10.37,2013-09-01 08:50:00,
2013-09-01 04:00:00,76.4,72.2,29.75,SW,223,0.0,3.0,87,0.00,CLR,CLR,0.00,0.0,WeatherDisplay:10.37,2013-09-01 09:00:00,
2013-09-01 04:10:00,76.4,72.2,29.75,SW,214,0.0,2.0,87,0.00,CLR,CLR,0.00,0.0,WeatherDisplay:10.37,2013-09-01 09:10:00,
2013-09-01 04:20:00,76.2,72.4,29.75,SSW,213,0.0,2.0,88,0.00,CLR,CLR,0.00,0.0,WeatherDisplay:10.37,2013-09-01 09:20:00,
2013-09-01 04:30:00,76.1,72.3,29.75,SSW,195,0.0,1.0,88,0.00,CLR,CLR,0.00,0.0,WeatherDisplay:10.37,2013-09-01 09:30:00,
2013-09-01 04:40:00,75.9,72.1,29.75,SSW,192,0.0,0.0,88,0.00,CLR,CLR,0.00,0.0,WeatherDisplay:10.37,2013-09-01 09:40:00,
2013-09-01 04:50:00,76.0,72.2,29.75,SSW,201,1.0,3.0,88,0.00,BKN,BKN,0.00,0.0,WeatherDisplay:10.37,2013-09-01 09:50:00,
2013-09-01 05:00:00,76.1,71.9,29.75,SSW,213,1.0,3.0,87,0.00,BKN,BKN,0.00,0.0,WeatherDisplay:10.37,2013-09-01 10:00:00,
2013-09-01 05:10:00,76.1,72.3,29.76,SSW,207,1.0,3.0,88,0.00,BKN,BKN,0.00,0.0,WeatherDisplay:10.37,2013-09-01 10:10:00,
2013-09-01 05:20:00,75.8,72.0,29.76,SSW,196,0.0,3.0,88,0.00,BKN,BKN,0.00,0.0,WeatherDisplay:10.37,2013-09-01 10:20:00,
2013-09-01 05:30:00,75.7,71.9,29.75,SSW,208,0.0,1.0,88,0.00,CLR,CLR,0.00,0.0,WeatherDisplay:10.37,2013-09-01 10:30:00,
2013-09-01 05:40:00,75.7,72.2,29.75,SSW,195,0.0,1.0,89,0.00,CLR,CLR,0.00,0.0,WeatherDisplay:10.37,2013-09-01 10:40:00,
2013-09-01 05:50:00,75.9,72.1,29.75,SW,219,0.0,2.0,88,0.00,SCT,SCT,0.00,0.0,WeatherDisplay:10.37,2013-09-01 10:50:00,
2013-09-01 06:00:00,76.0,71.8,29.76,SE,141,0.0,1.0,87,0.00,SCT,SCT,0.00,0.0,WeatherDisplay:10.37,2013-09-01 11:00:00,
2013-09-01 06:10:00,75.9,72.1,29.76,SSE,166,0.0,1.0,88,0.00,FEW,FEW,0.00,0.0,WeatherDisplay:10.37,2013-09-01 11:10:00,
2013-09-01 06:20:00,76.0,72.2,29.76,SSW,211,0.0,2.0,88,0.00,FEW,FEW,0.00,0.0,WeatherDisplay:10.37,2013-09-01 11:20:00,
2013-09-01 06:30:00,75.8,72.0,29.77,SSW,212,0.0,1.0,88,0.00,BKN,BKN,0.00,0.0,WeatherDisplay:10.37,2013-09-01 11:30:00,
2013-09-01 06:40:00,76.1,72.3,29.78,SSE,151,2.0,3.0,88,0.00,BKN,BKN,0.00,0.0,WeatherDisplay:10.37,2013-09-01 11:40:00,
2013-09-01 06:50:00,76.5,72.3,29.80,ENE,64,3.0,12.0,87,0.00,OVC,OVC,0.00,0.0,WeatherDisplay:10.37,2013-09-01 11:50:00,
2013-09-01 07:00:00,77.1,72.2,29.80,NE,55,5.0,12.0,85,0.00,OVC,OVC,0.00,0.0,WeatherDisplay:10.37,2013-09-01 12:00:00,
2013-09-01 07:10:00,75.9,69.6,29.82,East,88,3.0,20.0,81,0.00,BKN,BKN,0.00,0.0,WeatherDisplay:10.37,2013-09-01 12:10:00,
2013-09-01 07:20:00,74.3,68.8,29.82,ESE,104,8.0,16.0,83,0.00,BKN,BKN,0.00,0.0,WeatherDisplay:10.37,2013-09-01 12:20:00,
2013-09-01 07:30:00,73.2,68.7,29.83,ESE,102,6.0,20.0,86,0.00,BKN,BKN,0.00,0.0,WeatherDisplay:10.37,2013-09-01 12:30:00,
2013-09-01 07:40:00,71.4,68.6,29.83,East,95,2.0,14.0,91,0.05,RA,RA,0.05,0.0,WeatherDisplay:10.37,2013-09-01 12:40:00,
2013-09-01 07:50:00,71.1,69.0,29.83,East,83,3.0,12.0,93,0.01,RA,RA,0.06,0.0,WeatherDisplay:10.37,2013-09-01 12:50:00,
2013-09-01 08:00:00,70.9,68.8,29.83,ESE,111,8.0,16.0,93,0.02,RA,RA,0.08,0.0,WeatherDisplay:10.37,2013-09-01 13:00:00,
2013-09-01 08:10:00,70.9,68.8,29.83,ESE,121,7.0,16.0,93,0.00,OVC,OVC,0.08,0.0,WeatherDisplay:10.37,2013-09-01 13:10:00,
2013-09-01 08:20:00,71.0,68.9,29.85,SE,141,1.0,9.0,93,0.00,OVC,OVC,0.08,0.0,WeatherDisplay:10.37,2013-09-01 13:20:00,
2013-09-01 08:30:00,71.0,68.9,29.85,South,176,1.0,4.0,93,0.00,OVC,OVC,0.08,0.0,WeatherDisplay:10.37,2013-09-01 13:30:00,
2013-09-01 08:40:00,71.1,69.0,29.86,ESE,107,2.0,6.0,93,0.02,RA,RA,0.10,0.0,WeatherDisplay:10.37,2013-09-01 13:40:00,
2013-09-01 08:50:00,71.0,68.9,29.88,East,79,2.0,9.0,93,0.15,RA,RA,0.25,0.0,WeatherDisplay:10.37,2013-09-01 13:50:00,
2013-09-01 09:00:00,70.7,68.9,29.89,NE,48,1.0,4.0,94,0.20,RA,RA,0.45,0.0,WeatherDisplay:10.37,2013-09-01 14:00:00,
2013-09-01 09:10:00,70.5,69.0,29.87,East,90,3.0,8.0,95,0.29,RA,RA,0.74,0.0,WeatherDisplay:10.37,2013-09-01 14:10:00,
2013-09-01 09:20:00,70.0,68.5,29.86,SSW,198,3.0,8.0,95,0.24,RA,RA,0.99,0.0,WeatherDisplay:10.37,2013-09-01 14:20:00,
2013-09-01 09:30:00,69.9,68.7,29.85,SSE,168,2.0,8.0,96,0.25,RA,RA,1.23,0.0,WeatherDisplay:10.37,2013-09-01 14:30:00,
2013-09-01 09:40:00,69.9,68.7,29.83,SSE,148,3.0,7.0,96,0.13,RA,RA,1.37,0.0,WeatherDisplay:10.37,2013-09-01 14:40:00,
2013-09-01 09:50:00,70.2,69.0,29.89,SW,221,3.0,8.0,96,0.06,RA,RA,1.42,0.0,WeatherDisplay:10.37,2013-09-01 14:50:00,
2013-09-01 10:00:00,70.5,69.3,29.92,WSW,255,5.0,15.0,96,0.19,RA,RA,1.61,0.0,WeatherDisplay:10.37,2013-09-01 15:00:00,
2013-09-01 10:10:00,70.4,69.2,29.88,SSE,168,3.0,7.0,96,0.22,RA,RA,1.84,0.0,WeatherDisplay:10.37,2013-09-01 15:10:00,
2013-09-01 10:20:00,70.5,69.3,29.86,SSE,157,1.0,5.0,96,0.11,RA,RA,1.94,0.0,WeatherDisplay:10.37,2013-09-01 15:20:00,
2013-09-01 10:30:00,70.4,69.2,29.85,SSW,201,5.0,10.0,96,0.00,BKN,BKN,1.94,0.0,WeatherDisplay:10.37,2013-09-01 15:30:00,
2013-09-01 10:40:00,70.4,69.2,29.85,South,186,3.0,9.0,96,0.00,BKN,BKN,1.94,0.0,WeatherDisplay:10.37,2013-09-01 15:40:00,
2013-09-01 10:50:00,70.6,69.7,29.85,South,191,1.0,7.0,97,0.00,BKN,BKN,1.94,0.0,WeatherDisplay:10.37,2013-09-01 15:50:00,
2013-09-01 11:00:00,70.8,69.9,29.85,South,180,1.0,5.0,97,0.01,RA,RA,1.95,0.0,WeatherDisplay:10.37,2013-09-01 16:00:00,
2013-09-01 11:10:00,71.1,70.2,29.86,South,178,2.0,6.0,97,0.01,RA,RA,1.96,0.0,WeatherDisplay:10.37,2013-09-01 16:10:00,
2013-09-01 11:20:00,71.5,70.6,29.87,SW,215,3.0,5.0,97,0.01,RA,RA,1.97,0.0,WeatherDisplay:10.37,2013-09-01 16:20:00,
2013-09-01 11:30:00,71.7,70.5,29.88,SSW,208,2.0,7.0,96,0.00,BKN,BKN,1.97,0.0,WeatherDisplay:10.37,2013-09-01 16:30:00,
2013-09-01 11:40:00,72.0,70.8,29.87,SSW,203,2.0,7.0,96,0.00,BKN,BKN,1.97,0.0,WeatherDisplay:10.37,2013-09-01 16:40:00,
2013-09-01 11:50:00,72.4,71.2,29.87,SSW,210,2.0,6.0,96,0.00,OVC,OVC,1.97,0.0,WeatherDisplay:10.37,2013-09-01 16:50:00,
2013-09-01 12:00:00,72.7,71.5,29.87,SW,214,3.0,6.0,96,0.00,OVC,OVC,1.97,0.0,WeatherDisplay:10.37,2013-09-01 17:00:00,
2013-09-01 12:10:00,72.9,71.7,29.85,SSW,212,3.0,7.0,96,0.00,OVC,OVC,1.97,0.0,WeatherDisplay:10.37,2013-09-01 17:10:00,
2013-09-01 12:20:00,73.0,71.5,29.84,SSW,212,3.0,8.0,95,0.01,RA,RA,1.98,0.0,WeatherDisplay:10.37,2013-09-01 17:20:00,
2013-09-01 12:30:00,73.1,71.6,29.84,SSW,203,3.0,8.0,95,0.00,OVC,OVC,1.98,0.0,WeatherDisplay:10.37,2013-09-01 17:30:00,
2013-09-01 12:40:00,73.6,72.1,29.85,SW,223,2.0,6.0,95,0.00,OVC,OVC,1.98,0.0,WeatherDisplay:10.37,2013-09-01 17:40:00,
2013-09-01 12:50:00,74.4,72.2,29.85,SSW,207,3.0,7.0,93,0.00,OVC,OVC,1.98,0.0,WeatherDisplay:10.37,2013-09-01 17:50:00,
2013-09-01 13:00:00,75.0,72.5,29.84,SSW,213,3.0,8.0,92,0.00,OVC,OVC,1.98,0.0,WeatherDisplay:10.37,2013-09-01 18:00:00,
2013-09-01 13:10:00,75.7,72.6,29.84,SW,214,5.0,10.0,90,0.00,OVC,OVC,1.98,0.0,WeatherDisplay:10.37,2013-09-01 18:10:00,
2013-09-01 13:20:00,76.1,72.6,29.84,SSW,196,2.0,9.0,89,0.00,OVC,OVC,1.98,0.0,WeatherDisplay:10.37,2013-09-01 18:20:00,
2013-09-01 13:30:00,76.2,72.4,29.83,SSW,208,5.0,10.0,88,0.00,OVC,OVC,1.98,0.0,WeatherDisplay:10.37,2013-09-01 18:30:00,
2013-09-01 13:40:00,76.3,72.8,29.84,SSW,213,3.0,7.0,89,0.00,OVC,OVC,1.98,0.0,WeatherDisplay:10.37,2013-09-01 18:40:00,
2013-09-01 13:50:00,76.3,72.5,29.83,SSW,203,5.0,10.0,88,0.00,OVC,OVC,1.98,0.0,WeatherDisplay:10.37,2013-09-01 18:50:00,
2013-09-01 14:00:00,76.4,73.2,29.82,SSW,203,2.0,12.0,90,0.00,OVC,OVC,1.98,0.0,WeatherDisplay:10.37,2013-09-01 19:00:00,
2013-09-01 14:10:00,76.4,73.2,29.81,South,184,5.0,12.0,90,0.00,OVC,OVC,1.98,0.0,WeatherDisplay:10.37,2013-09-01 19:10:00,
2013-09-01 14:30:00,75.6,72.5,29.81,SSW,203,3.0,7.0,90,0.00,OVC,OVC,1.98,0.0,WeatherDisplay:10.37,2013-09-01 19:30:00,
2013-09-01 14:40:00,75.0,72.2,29.82,SW,214,1.0,7.0,91,0.02,RA,RA,2.00,0.0,WeatherDisplay:10.37,2013-09-01 19:40:00,
2013-09-01 14:50:00,74.5,72.0,29.81,SSW,203,3.0,6.0,92,0.01,RA,RA,2.01,0.0,WeatherDisplay:10.37,2013-09-01 19:50:00,
2013-09-01 15:00:00,74.5,72.3,29.80,SSW,211,3.0,6.0,93,0.00,BKN,BKN,2.01,0.0,WeatherDisplay:10.37,2013-09-01 20:00:00,
2013-09-01 15:10:00,74.8,72.3,29.80,SW,218,3.0,9.0,92,0.00,CLR,CLR,2.01,0.0,WeatherDisplay:10.37,2013-09-01 20:10:00,
2013-09-01 15:20:00,75.1,72.6,29.80,SW,219,3.0,7.0,92,0.00,CLR,CLR,2.01,0.0,WeatherDisplay:10.37,2013-09-01 20:20:00,
2013-09-01 15:30:00,75.6,72.8,29.80,SW,221,2.0,6.0,91,0.00,CLR,CLR,2.01,0.0,WeatherDisplay:10.37,2013-09-01 20:30:00,
2013-09-01 15:40:00,76.4,72.9,29.80,SSW,212,2.0,9.0,89,0.00,CLR,CLR,2.01,0.0,WeatherDisplay:10.37,2013-09-01 20:40:00,
2013-09-01 15:50:00,77.5,72.9,29.80,South,191,2.0,6.0,86,0.00,CLR,CLR,2.01,0.0,WeatherDisplay:10.37,2013-09-01 20:50:00,
2013-09-01 16:00:00,78.8,73.9,29.80,SSW,207,5.0,7.0,85,0.00,SCT,SCT,2.01,0.0,WeatherDisplay:10.37,2013-09-01 21:00:00,
2013-09-01 16:10:00,79.2,73.6,29.80,SSW,211,2.0,7.0,83,0.00,FEW,FEW,2.01,0.0,WeatherDisplay:10.37,2013-09-01 21:10:00,
2013-09-01 16:20:00,79.0,73.0,29.79,SSW,198,2.0,7.0,82,0.00,FEW,FEW,2.01,0.0,WeatherDisplay:10.37,2013-09-01 21:20:00,
2013-09-01 16:30:00,79.3,72.6,29.78,SW,216,1.0,5.0,80,0.00,FEW,FEW,2.01,0.0,WeatherDisplay:10.37,2013-09-01 21:30:00,
2013-09-01 16:40:00,79.7,73.3,29.78,SSW,201,2.0,6.0,81,0.00,CLR,CLR,2.01,0.0,WeatherDisplay:10.37,2013-09-01 21:40:00,
2013-09-01 16:50:00,80.2,73.5,29.78,South,176,3.0,6.0,80,0.00,CLR,CLR,2.01,0.0,WeatherDisplay:10.37,2013-09-01 21:50:00,
2013-09-01 17:00:00,80.2,73.1,29.78,SSW,203,2.0,5.0,79,0.00,CLR,CLR,2.01,0.0,WeatherDisplay:10.37,2013-09-01 22:00:00,
2013-09-01 17:10:00,80.8,73.6,29.78,South,189,1.0,6.0,79,0.00,CLR,CLR,2.01,0.0,WeatherDisplay:10.37,2013-09-01 22:10:00,
2013-09-01 17:20:00,81.0,74.2,29.77,South,188,1.0,3.0,80,0.00,CLR,CLR,2.01,0.0,WeatherDisplay:10.37,2013-09-01 22:20:00,
2013-09-01 17:30:00,80.1,73.4,29.77,South,185,2.0,3.0,80,0.00,CLR,CLR,2.01,0.0,WeatherDisplay:10.37,2013-09-01 22:30:00,
2013-09-01 17:40:00,79.4,73.1,29.77,SSW,213,2.0,4.0,81,0.00,CLR,CLR,2.01,0.0,WeatherDisplay:10.37,2013-09-01 22:40:00,
2013-09-01 17:50:00,79.0,73.0,29.77,South,189,1.0,3.0,82,0.00,CLR,CLR,2.01,0.0,WeatherDisplay:10.37,2013-09-01 22:50:00,
2013-09-01 18:00:00,79.2,72.9,29.77,SSW,193,2.0,5.0,81,0.00,CLR,CLR,2.01,0.0,WeatherDisplay:10.37,2013-09-01 23:00:00,
2013-09-01 18:10:00,79.0,73.0,29.77,SSW,213,1.0,5.0,82,0.00,CLR,CLR,2.01,0.0,WeatherDisplay:10.37,2013-09-01 23:10:00,
2013-09-01 18:20:00,78.8,73.2,29.77,South,177,0.0,2.0,83,0.00,CLR,CLR,2.01,0.0,WeatherDisplay:10.37,2013-09-01 23:20:00,
2013-09-01 18:30:00,78.7,73.1,29.78,SSE,153,0.0,1.0,83,0.00,CLR,CLR,2.01,0.0,WeatherDisplay:10.37,2013-09-01 23:30:00,
2013-09-01 18:40:00,78.6,73.0,29.78,SSW,205,0.0,2.0,83,0.00,CLR,CLR,2.01,0.0,WeatherDisplay:10.37,2013-09-01 23:40:00,
2013-09-01 18:50:00,78.9,72.9,29.78,South,177,0.0,1.0,82,0.00,CLR,CLR,2.01,0.0,WeatherDisplay:10.37,2013-09-01 23:50:00,
2013-09-01 19:00:00,78.0,72.8,29.79,SSW,211,1.0,2.0,84,0.00,CLR,CLR,2.01,0.0,WeatherDisplay:10.37,2013-09-02 00:00:00,
2013-09-01 19:10:00,77.4,72.9,29.78,SSW,203,0.0,1.0,86,0.00,CLR,CLR,2.01,0.0,WeatherDisplay:10.37,2013-09-02 00:10:00,
2013-09-01 19:20:00,76.8,72.3,29.78,SSW,205,0.0,1.0,86,0.00,CLR,CLR,2.01,0.0,WeatherDisplay:10.37,2013-09-02 00:20:00,
2013-09-01 19:30:00,76.5,72.3,29.79,South,182,0.0,0.0,87,0.00,CLR,CLR,2.01,0.0,WeatherDisplay:10.37,2013-09-02 00:30:00,
2013-09-01 19:40:00,76.0,72.5,29.78,South,184,0.0,1.0,89,0.00,CLR,CLR,2.01,0.0,WeatherDisplay:10.37,2013-09-02 00:40:00,
2013-09-01 19:50:00,75.9,72.1,29.79,South,186,0.0,1.0,88,0.00,CLR,CLR,2.01,0.0,WeatherDisplay:10.37,2013-09-02 00:50:00,
2013-09-01 20:00:00,76.2,72.4,29.80,SSE,166,0.0,0.0,88,0.00,CLR,CLR,2.01,0.0,WeatherDisplay:10.37,2013-09-02 01:00:00,
2013-09-01 20:10:00,76.1,72.6,29.79,SSE,166,0.0,1.0,89,0.00,CLR,CLR,2.01,0.0,WeatherDisplay:10.37,2013-09-02 01:10:00,
2013-09-01 20:20:00,75.9,72.4,29.80,SE,144,0.0,2.0,89,0.00,CLR,CLR,2.01,0.0,WeatherDisplay:10.37,2013-09-02 01:20:00,
2013-09-01 20:30:00,75.8,72.7,29.81,ESE,117,0.0,1.0,90,0.00,CLR,CLR,2.01,0.0,WeatherDisplay:10.37,2013-09-02 01:30:00,
2013-09-01 20:40:00,75.6,72.5,29.81,ESE,117,0.0,1.0,90,0.00,CLR,CLR,2.01,0.0,WeatherDisplay:10.37,2013-09-02 01:40:00,
2013-09-01 20:50:00,75.5,72.6,29.82,ESE,116,0.0,1.0,91,0.00,CLR,CLR,2.01,0.0,WeatherDisplay:10.37,2013-09-02 01:50:00,
2013-09-01 21:00:00,75.5,72.6,29.82,ESE,116,0.0,1.0,91,0.00,CLR,CLR,2.01,0.0,WeatherDisplay:10.37,2013-09-02 02:00:00,
2013-09-01 21:10:00,75.4,72.6,29.82,ESE,116,0.0,0.0,91,0.00,CLR,CLR,2.01,0.0,WeatherDisplay:10.37,2013-09-02 02:10:00,
2013-09-01 21:20:00,75.1,72.6,29.82,ESE,116,0.0,1.0,92,0.00,CLR,CLR,2.01,0.0,WeatherDisplay:10.37,2013-09-02 02:20:00,
2013-09-01 21:30:00,74.7,72.2,29.82,ESE,117,0.0,1.0,92,0.00,CLR,CLR,2.01,0.0,WeatherDisplay:10.37,2013-09-02 02:30:00,
2013-09-01 21:40:00,74.2,72.1,29.82,ESE,117,0.0,1.0,93,0.00,CLR,CLR,2.01,0.0,WeatherDisplay:10.37,2013-09-02 02:40:00,
2013-09-01 21:50:00,73.9,72.1,29.82,ESE,117,0.0,1.0,94,0.00,CLR,CLR,2.01,0.0,WeatherDisplay:10.37,2013-09-02 02:50:00,
2013-09-01 22:00:00,73.8,72.0,29.82,ESE,117,0.0,1.0,94,0.00,CLR,CLR,2.01,0.0,WeatherDisplay:10.37,2013-09-02 03:00:00,
2013-09-01 22:10:00,73.9,72.1,29.82,ESE,117,0.0,1.0,94,0.00,CLR,CLR,2.01,0.0,WeatherDisplay:10.37,2013-09-02 03:10:00,
2013-09-01 22:20:00,73.8,72.0,29.82,ESE,117,0.0,0.0,94,0.00,CLR,CLR,2.01,0.0,WeatherDisplay:10.37,2013-09-02 03:20:00,
2013-09-01 22:30:00,73.6,72.1,29.82,ESE,117,0.0,0.0,95,0.00,CLR,CLR,2.01,0.0,WeatherDisplay:10.37,2013-09-02 03:30:00,
2013-09-01 22:40:00,73.6,72.1,29.82,ESE,117,0.0,1.0,95,0.00,CLR,CLR,2.01,0.0,WeatherDisplay:10.37,2013-09-02 03:40:00,
2013-09-01 22:50:00,73.5,72.0,29.83,ESE,117,0.0,1.0,95,0.00,CLR,CLR,2.01,0.0,WeatherDisplay:10.37,2013-09-02 03:50:00,
2013-09-01 23:00:00,73.5,72.0,29.83,ESE,110,0.0,1.0,95,0.00,CLR,CLR,2.01,0.0,WeatherDisplay:10.37,2013-09-02 04:00:00,
2013-09-01 23:10:00,73.3,71.8,29.83,ESE,106,1.0,2.0,95,0.00,CLR,CLR,2.01,0.0,WeatherDisplay:10.37,2013-09-02 04:10:00,
2013-09-01 23:20:00,73.1,71.6,29.83,ESE,109,1.0,2.0,95,0.00,CLR,CLR,2.01,0.0,WeatherDisplay:10.37,2013-09-02 04:20:00,
2013-09-01 23:30:00,72.9,71.4,29.83,ESE,111,0.0,2.0,95,0.00,CLR,CLR,2.01,0.0,WeatherDisplay:10.37,2013-09-02 04:30:00,
2013-09-01 23:40:00,72.8,71.3,29.83,ESE,103,0.0,2.0,95,0.00,CLR,CLR,2.01,0.0,WeatherDisplay:10.37,2013-09-02 04:40:00,
2013-09-01 23:50:00,72.6,71.1,29.83,ESE,119,1.0,3.0,95,0.00,BKN,BKN,2.01,0.0,WeatherDisplay:10.37,2013-09-02 04:50:00,